User: anonymous   Login
Location: Unspecified
(0.0000°N, 0.0000°E)
Time: 15:09:15
(UTC+00:00)
Language:

MERIDIAN 7 - Orbit

View from above orbital plane
View from above orbital plane
View from above satellite
View from above satellite

Ground track
Ground track

The orbit data is extracted from the following two-line orbital elements,

1 40296U 14069A   18261.25898579  .00000144  00000-0  00000+0 0  9990
2 40296  62.8484 192.2284 6802294 274.6691 305.0428  2.00590215 28476
Epoch (UTC): 18 September 2018 06:12:56
Eccentricity: 0.6802294
inclination: 62.8484°
perigee height: 2114 km
apogee height: 38245 km
right ascension of ascending node: 192.2284°
argument of perigee: 274.6691°
revolutions per day: 2.00590215
mean anomaly at epoch: 305.0428°
orbit number at epoch: 2847

The dashed part of the orbit path shows where the satellite is in the earth's shadow,  

DLR